STARLINK-1557, 46034

Orbit data source: Space-Track

STARLINK-1557, 46034 is a payload satellite owned by SpaceX/Seattle (US) in LEO that was launched on Fri, 07 Aug 2020 UTC via an FALCON 9 launch vehicle from the Air Force Eastern Test Range (AFETR). Payload-class satellites include a variety of spacecraft equipped with specific instruments for various scientific and technological missions. These include communications satellites like Starlink; space stations such as the ISS; scientific satellites like the Hubble; Earth observation satellites from companies like Planet Labs, Umbra, and HawkEye 360; GPS; miniature CubeSats for education and research; and military/defense satellites.

Loading next visibility...
Identifier
46034, 2020-055H
Orbit
LEO
Country
Flag of USUS
Related business
Manufacturer
SpaceX/Seattle
Mission
Operational Commercial Communications
Bus & Motor
STARLINK, Unknown motor
Mass
260 kg wet, ~248 kg dry
Launch date (UTC)
2020-08-07 (6 years ago)
Launch vehicle
FALCON 9
Launch site
Air Force Eastern Test Range (AFETR)
Object type
Payload
Rocket body
Debris
Shape & HBR
Box + 1 Pan, 10.1 m
Radar Cross Section
13.562 m², Large (>1 m²)

Expand to show TLE details & history
Last TLE update: 13 hours ago

TLE from 13 hours ago
0 STARLINK-1557
1 46034U 20055H   26072.00002315  .01040532  00000-0  39361-1 0  9995
2 46034  53.1292 110.9733 0002149  82.0880  40.6329 15.23567240  5742
Epoch: 2026-03-13T00:00Z
TLE epoch observation values (Epoch: 2026-03-13T00:00:02.000Z)
Latitude
42.42826°
Longitude
77.34145°
Altitude
498.082 km
Speed
7.621 km/s
True Right ascension
16h 31m 57s
True Declination
42° 15' 02"
Sunlit
Object was in daylight at epoch
Visualization orbit readout
Latitude
Unknown
Longitude
Unknown
Altitude
Unknown
Speed
Unknown
Apparent Right ascension
Unknown
Apparent Declination
Unknown
Sunlit
N/A
Visualization observer readout
Local Sidereal Time
17:47:57
Azimuth
Unknown
Elevation
Unknown
Doppler factor
Unknown
Orbital elements
Apogee altitude
496.829 km
Perigee altitude
493.875 km
Semi-major axis
6,873.489 km
Eccentricity
0.00021
Inclination
53.1292°
RAAN
110.9733°
Arg. of periapsis
82.088°
True anomaly
40.64894°
Mean anomaly
40.6329°
Eccentric anomaly
40.64092°
Mean motion
3.8087 °/min
Orbital period
94.52 mins
BSTAR
0.039361
Loading maneuver chart data...
Computing Atmospheric mass density...
Loading historical data...
Loading historical data...
Loading historical data...
Loading historical data...
Loading historical data...
Loading historical data...
Loading historical data...

Documentation

Showing up to 5 results
|